Regional Weather Roundup
Issued by NWS

Home | Current Version | Previous Version | Graphics & Text | Print | Product List | Glossary On
Versions: 1 2 3 4 5 6 7 8 9 10 11 12 13 14 15 16 17 18 19 20 21 22 23 24 25 26 27 28 29 30 31 32 33 34 35 36 37 38 39 40 41 42 43 44 45 46 47 48 49 50
000
ASUS43 KMPX 292201
RWRMN
WEATHER ROUNDUP FOR MINNESOTA
NATIONAL WEATHER SERVICE TWIN CITIES/CHANHASSEN MN
500 PM CDT FRI AUG 29 2014


NOTE: "FAIR" INDICATES FEW OR NO CLOUDS BELOW 12,000 FEET WITH NO
SIGNIFICANT WEATHER AND/OR OBSTRUCTIONS TO VISIBILITY. N/A MEANS
CURRENT SKY AND/OR WEATHER CONDITIONS ARE NOT AVAILABLE.

MNZ060>063-068>070-292300-
   Twin Cities Metro

CITY           SKY/WX    TMP DP  RH WIND       PRES   REMARKS
TWIN CITIES    PTSUNNY   76  69  79 NW10      29.73S
ST PAUL        PTSUNNY   79  70  74 N3        29.72S
CRYSTAL        CLOUDY    72  68  87 CALM      29.72S THUNDER
BLAINE         CLOUDY    72  72 100 CALM      29.74R
LAKEVILLE      PTSUNNY   79  70  73 S7        29.73F
EDEN PRAIRIE   LGT RAIN  72  72 100 NW5       29.72S FOG
SOUTH ST PAUL  PTSUNNY   81  68  65 SW9       29.72S
LAKE ELMO      PTSUNNY   75  70  83 E3        29.74S
$$
MNZ001>005-007-008-013>017-022>024-027-028-292300-
   Northwest Minnesota

CITY           SKY/WX    TMP DP  RH WIND       PRES   REMARKS
BEMIDJI        CLOUDY    69  65  84 CALM      29.76F
HALLOCK        PTSUNNY   64  57  77 N14G20    29.81R
ROSEAU         LGT RAIN  64  61  88 N9        29.78S
WARROAD        CLOUDY    66  63  88 N12G22    29.78R
THIEF RVR FALL CLOUDY    70  64  83 NW7       29.77S
CROOKSTON      MOSUNNY   72  64  78 CALM      29.77R
FOSSTON        DRIZZLE   64  63  94 W6        29.78S
DETROIT LAKES  CLOUDY    70  64  83 NW10      29.80R
MOORHEAD       PTSUNNY   73  70  88 CALM      29.77R
PARK RAPIDS    CLOUDY    71  65  81 W5        29.77S
MAHNOMEN       CLOUDY    67  64  90 NW6       29.77S
$$
MNZ006-009>011-018-025>026-292300-
   North Central Minnesota

CITY           SKY/WX    TMP DP  RH WIND       PRES   REMARKS
BAUDETTE       CLOUDY    67  65  93 CALM      29.76S
FLAG ISLAND    LGT RAIN  64  63  94 N14       29.77R
INTL FALLS     CLOUDY    69  63  81 SE5       29.75F
WASKISH        CLOUDY    70  66  88 CALM      29.76S
BIG FORK       CLOUDY    66  63  88 CALM      29.77F
LONGVILLE      CLOUDY    66  64  94 NW3       29.77R
GRAND RAPIDS   CLOUDY    66  63  88 NW9       29.76F
CRANE LAKE     CLOUDY    63  61  94 CALM      29.78S
ORR            CLOUDY    64  59  82 CALM      29.75S
COOK           CLOUDY    64  61  88 CALM      29.77S
WALKER         CLOUDY    68  64  88 CALM      29.76F
$$
MNZ012-019>021-037-292300-
   Northeast Minnesota

CITY           SKY/WX    TMP DP  RH WIND       PRES   REMARKS
DULUTH         CLOUDY    65  62  90 CALM      29.76R FOG
ELY            CLOUDY    63  59  88 CALM      29.77S
HIBBING        CLOUDY    66  62  87 W3        29.76F
EVELETH        CLOUDY    63  61  94 CALM      29.77F
DULUTH HARBOR  CLOUDY    63  61  94 E9        29.76R
TWO HARBORS    CLOUDY    63  57  82 E5        29.74S
SILVER BAY     CLOUDY    61  61 100 N5        29.74F FOG
GRAND MARAIS     N/A     60  59  96 NE7       29.76F
G MARAIS ARPRT FOG       57  54  88 E3        29.79S VSB 1
$$
MNZ029>031-032-039>041-046>048-054>057-064-292300-
   West Central Minnesota

CITY           SKY/WX    TMP DP  RH WIND       PRES   REMARKS
FERGUS FALLS   CLOUDY    70  64  83 NW6       29.77S
WHEATON        PTSUNNY   72  64  78 NW8       29.78S
MORRIS         PTSUNNY   75  66  73 N6        29.76S
ALEXANDRIA     CLOUDY    72  65  78 NW8       29.79R
ELBOW LAKE     CLOUDY    71  65  82 NW5       29.77S
WADENA         CLOUDY    70  66  88 W5        29.77R
GLENWOOD       CLOUDY    73  66  78 W3        29.78S
APPLETON       PTSUNNY   77  66  69 NW6       29.76S
BENSON         CLOUDY    75  68  78 N5        29.76S
ORTONVILLE     PTSUNNY   77  66  69 CALM      29.76S
MADISON        CLOUDY    77  68  73 N6        29.76S
WILLMAR        LGT RAIN  72  70  94 CALM      29.77S
$$
MNZ033>034-036-042>043-049>051-058-059-292300-
   Central Minnesota

CITY           SKY/WX    TMP DP  RH WIND       PRES   REMARKS
ST CLOUD       CLOUDY    73  67  81 W5        29.74S
SAUK CENTRE    MOCLDY    71  66  83 NW3       29.77S
PAYNESVILLE    HVY RAIN  70  66  89 CALM      29.76S
AITKIN         CLOUDY    72  64  78 CALM      29.74F
PINE RIVER     CLOUDY    68  64  88 CALM      29.80S
BRAINERD       CLOUDY    69  65  86 NW3       29.76S
STAPLES        CLOUDY    70  64  83 CALM      29.77R
LONG PRAIRIE   CLOUDY    70  64  83 CALM      29.78R
LITTLE FALLS   CLOUDY    70  64  83 CALM      29.75F
LITCHFIELD     HVY RAIN  72  72 100 CALM      29.76S
BUFFALO        CLOUDY    71  68  90 CALM      29.74S
MAPLE LAKE     CLOUDY    71  70  96 CALM      29.75S
$$
MNZ037-044-045-052-053-292300-
   East Central Minnesota

CITY           SKY/WX    TMP DP  RH WIND       PRES   REMARKS
PRINCETON      CLOUDY    72  70  94 W5        29.73F
MORA           CLOUDY    64  64 100 W3        29.76R
CAMBRIDGE      CLOUDY    72  63  73 NW3       29.72S
RUSH CITY      CLOUDY    71  67  87 CALM      29.74S
MOOSE LAKE     CLOUDY    68  66  94 W3        29.73R FOG
HINCKLEY       CLOUDY    72  68  88 W7        29.74S
CLOQUET        CLOUDY    64  64 100 CALM      29.76R FOG
MCGREGOR       CLOUDY    68  64  88 CALM      29.76R
$$
MNZ071>073-080-081-089-090-097-098-292300-
   Southwest Minnesota

CITY           SKY/WX    TMP DP  RH WIND       PRES   REMARKS
MONTEVIDEO     CLOUDY    75  73  94 N6        29.76S
GRANITE FALLS  CLOUDY    72  68  88 CALM      29.77S
CANBY          CLOUDY    74  68  81 N3        29.78R
MARSHALL       CLOUDY    72  66  83 E3        29.76S
REDWOOD FALLS  RAIN      69  68  96 SW10      29.76R FOG
OLIVIA         CLOUDY    73  68  83 NW3       29.75S
PIPESTONE      LGT RAIN  66  64  94 CALM      29.78F
WINDOM         LGT RAIN  72  68  88 SW8       29.78S
WORTHINGTON    CLOUDY    70  68  94 W6        29.78F
JACKSON        RAIN      72  68  88 W7        29.77F
TRACY          CLOUDY    69  67  94 CALM      29.78R
SLAYTON        CLOUDY    72  68  88 CALM      29.79R
$$
MNZ065>067-074>077-082>085-091>093-292300-
   South Central Minnesota

CITY           SKY/WX    TMP DP  RH WIND       PRES   REMARKS
MANKATO        CLOUDY    75  66  73 SW8       29.75S
NEW ULM        LGT RAIN  70  70 100 NW3       29.75S
ST JAMES       CLOUDY    75  70  83 SW7       29.76S
FAIRMONT       CLOUDY    70  66  88 W7        29.77S
GLENCOE        CLOUDY    69  62  80 W5        29.74S
FARIBAULT      PTSUNNY   81  66  61 SW7       29.75S
OWATONNA       PTSUNNY   79  70  73 W7        29.76R
WASECA         PTSUNNY   77  66  69 SW7       29.78S
ALBERT LEA     PTSUNNY   79  70  73 W7        29.77R
$$
MNZ078>079-086>088-094>096-292300-
   Southeast Minnesota

CITY           SKY/WX    TMP DP  RH WIND       PRES   REMARKS
ROCHESTER      PTSUNNY   78  69  73 S8        29.76F
RED WING       PTSUNNY   79  68  69 SE10      29.71S
STANTON        CLOUDY    80  69  67 W8        29.73R
DODGE CENTER   PTSUNNY   79  68  69 SW13      29.76S THUNDER
WINONA         RAIN      73  63  68 W22G45    29.76R
AUSTIN         PTSUNNY   81  70  69 SW8       29.76S
PRESTON        PTSUNNY   76  72  87 CALM      29.76F
$$
ABBREVIATIONS USED IN REMARKS
   TC - TEMPERATURES IN CELSIUS
  WCI - WIND CHILL INDEX
   HX - HEAT INDEX
  VSB - VISIBILITY
$$



USA.gov is the U.S. government's official web portal to all federal, state and local government web resources and services.